Location: Ch�tillon
(48.8024°N, 2.2935°E)
Time: 15:13:34
(UTC+00:00)

CAS-4A - Pass Details

Date: 05 July 2022
Orbit: 521 x 536 km, 43.0° (Epoch: 19 August)

Event Time Altitude Azimuth Distance (km) Brightness Sun altitude
Exits shadow 02:46:24 - 252° (WSW) 1,910 ? -8.9°
Reaches altitude 10° 02:46:49 10° 250° (WSW) 1,757 ? -8.8°
Maximum altitude 02:50:30 36° 183° (S) 843 ? -8.5°
Drops below altitude 10° 02:54:13 10° 116° (ESE) 1,764 ? -8.1°
Sets 02:56:34 0° 108° (ESE) 2,655 ? -7.8°
